Ypsilanti, MI

3:58 AM EDT on August 24, 2016 (GMT -0400)
Willow Run

Weather History for KYIP - February, 2013

Change the Weather History Date:

Sunday, February 24, 2013

  Actual Average Record
Temperature  
Mean Temperature 29 °F -  
Max Temperature 37 °F 39 °F 61 °F (1984)
Min Temperature 21 °F 24 °F 1 °F (2015)
Degree Days  
Heating Degree Days 36    
Moisture  
Dew Point 21 °F    
Average Humidity 69    
Maximum Humidity 81    
Minimum Humidity 57    
Precipitation  
Precipitation 0.00 in - - ()
Sea Level Pressure  
Sea Level Pressure 30.04 in    
Wind  
Wind Speed 8 mph (West)    
Max Wind Speed 16 mph    
Max Gust Speed -    
Visibility 8 miles    
Events Snow    
Averages and records for this station are not official NWS values.
T = Trace of Precipitation, MM = Missing Value Source: NWS Daily Summary

Daily Weather History Graph

Daily Weather History Graph

Search for Another Location

Airport or City:

Trip Planner

Search our weather history database for the weather conditions in past years. The results will help you decide how hot, cold, wet, or windy it might be!

Date:

Astronomy

Feb. 24, 2013 Rise Set
Actual Time 7:16 AM EST 6:18 PM EST
Civil Twilight 6:48 AM EST 6:46 PM EST
Nautical Twilight 6:16 AM EST 7:19 PM EST
Astronomical Twilight 5:43 AM EST 7:51 PM EST
Moon 5:28 PM EST 6:13 AM EST
Length of Visible Light 11h 58m
Length of Day
11h 01m
Waxing Gibbous, 99% of the Moon is Illuminated
Feb 24
Waxing Gibbous
Feb 25
Full
Mar 4
Last Quarter
Mar 11
New
Mar 19
First Quarter

Hourly Weather History & Observations

Time (EST) Temp. Windchill Dew Point Humidity Pressure Visibility Wind Dir Wind Speed Gust Speed Precip Events Conditions
12:53 AM 24.1 °F 15.2 °F 16.0 °F 71% 29.92 in 8.0 mi WSW 8.1 mph - N/A   Clear
1:53 AM 23.0 °F 15.8 °F 16.0 °F 74% 29.93 in 10.0 mi WSW 5.8 mph - N/A   Clear
2:53 AM 26.1 °F 16.8 °F 17.1 °F 69% 29.94 in 7.0 mi West 9.2 mph - N/A   Overcast
3:53 AM 26.1 °F 17.6 °F 19.0 °F 75% 29.95 in 3.0 mi WSW 8.1 mph - 0.00 in Snow Light Snow
4:53 AM 23.0 °F 15.8 °F 17.1 °F 78% 29.95 in 7.0 mi WSW 5.8 mph - 0.00 in   Mostly Cloudy
5:53 AM 24.1 °F 16.0 °F 18.0 °F 77% 29.96 in 7.0 mi SW 6.9 mph - N/A   Overcast
6:53 AM 25.0 °F 18.1 °F 18.0 °F 75% 29.98 in 7.0 mi WSW 5.8 mph - N/A   Overcast
7:53 AM 21.0 °F 13.4 °F 16.0 °F 81% 29.99 in 6.0 mi SW 5.8 mph - N/A   Haze
8:53 AM 26.1 °F 19.4 °F 19.0 °F 75% 30.01 in 6.0 mi SW 5.8 mph - N/A   Haze
9:53 AM 32.0 °F 22.5 °F 21.9 °F 66% 30.01 in 8.0 mi West 12.7 mph - N/A   Overcast
10:53 AM 33.1 °F 23.0 °F 23.0 °F 66% 30.02 in 6.0 mi West 15.0 mph - 0.00 in Snow Light Snow
11:53 AM 35.1 °F 26.9 °F 24.1 °F 64% 30.03 in 10.0 mi West 11.5 mph - 0.00 in   Overcast
12:53 PM 36.0 °F 26.3 °F 23.0 °F 59% 30.04 in 10.0 mi West 16.1 mph - N/A   Mostly Cloudy
1:53 PM 37.0 °F 28.5 °F 24.1 °F 59% 30.04 in 10.0 mi WNW 13.8 mph - N/A   Overcast
2:53 PM 37.0 °F 29.3 °F 23.0 °F 57% 30.05 in 10.0 mi West 11.5 mph - N/A   Overcast
3:53 PM 37.0 °F 29.3 °F 25.0 °F 62% 30.06 in 10.0 mi West 11.5 mph - N/A   Overcast
4:53 PM 37.0 °F 29.8 °F 23.0 °F 57% 30.08 in 5.0 mi WNW 10.4 mph - N/A   Haze
5:53 PM 36.0 °F 30.3 °F 24.1 °F 62% 30.10 in 10.0 mi WNW 6.9 mph - N/A   Mostly Cloudy
6:53 PM 35.1 °F 30.1 °F 24.1 °F 64% 30.12 in 10.0 mi West 5.8 mph - N/A   Overcast
7:53 PM 34.0 °F 28.8 °F 25.0 °F 70% 30.14 in 10.0 mi West 5.8 mph - N/A   Overcast
8:53 PM 30.9 °F 25.2 °F 23.0 °F 72% 30.15 in 10.0 mi WSW 5.8 mph - N/A   Scattered Clouds
9:53 PM 27.0 °F 19.5 °F 21.9 °F 81% 30.15 in 10.0 mi WSW 6.9 mph - N/A   Clear
10:53 PM 28.9 °F 21.1 °F 21.9 °F 75% 30.16 in 9.0 mi West 8.1 mph - N/A   Clear
11:53 PM 26.1 °F 20.5 °F 19.9 °F 78% 30.16 in 8.0 mi WSW 4.6 mph - N/A   Partly Cloudy